Blattenbach Aussen Messungen

Zurück zum Überblick

Zeitpunkt Temperatur Temperatur Kabelsensor Luftfeuchte
27.03.2019 02:12:33 1,7 C 6,6 C 67,0%
27.03.2019 02:05:33 1,8 C 6,7 C 66,0%
27.03.2019 01:58:32 1,7 C 6,7 C 66,0%
27.03.2019 01:51:32 1,8 C 6,7 C 65,0%
27.03.2019 01:44:33 1,7 C 6,7 C 65,0%
27.03.2019 01:37:31 1,6 C 6,7 C 66,0%
27.03.2019 01:30:33 1,6 C 6,7 C 66,0%
27.03.2019 01:23:30 1,8 C 6,8 C 64,0%
27.03.2019 01:16:32 1,8 C 6,8 C 64,0%
27.03.2019 01:09:32 1,7 C 6,8 C 64,0%
27.03.2019 01:02:32 1,5 C 6,8 C 65,0%
27.03.2019 00:55:31 1,4 C 6,8 C 65,0%
27.03.2019 00:48:35 1,5 C 6,9 C 65,0%
27.03.2019 00:41:30 1,4 C 6,9 C 65,0%
27.03.2019 00:34:32 1,4 C 6,9 C 66,0%
27.03.2019 00:27:34 1,5 C 6,9 C 66,0%
27.03.2019 00:20:33 1,5 C 6,9 C 65,0%
27.03.2019 00:13:31 1,6 C 6,9 C 65,0%
27.03.2019 00:06:33 1,6 C 7,0 C 65,0%
26.03.2019 23:59:34 1,6 C 7,0 C 65,0%
26.03.2019 23:52:34 1,6 C 7,0 C 65,0%
26.03.2019 23:45:32 1,7 C 7,0 C 64,0%
26.03.2019 23:38:31 1,8 C 7,1 C 64,0%
26.03.2019 23:31:33 1,7 C 7,1 C 64,0%
26.03.2019 23:24:33 1,8 C 7,1 C 63,0%
26.03.2019 23:17:34 2,0 C 7,1 C 63,0%
26.03.2019 23:10:31 2,0 C 7,1 C 63,0%
26.03.2019 23:03:33 1,9 C 7,2 C 63,0%
26.03.2019 22:56:31 2,2 C 7,2 C 62,0%
26.03.2019 22:49:30 2,2 C 7,2 C 62,0%
26.03.2019 22:42:32 2,3 C 7,2 C 62,0%
26.03.2019 22:35:32 2,4 C 7,3 C 62,0%
26.03.2019 22:28:29 2,5 C 7,3 C 61,0%
26.03.2019 22:21:33 2,6 C 7,3 C 60,0%
26.03.2019 22:14:33 2,5 C 7,3 C 61,0%
26.03.2019 22:07:31 2,6 C 7,3 C 61,0%
26.03.2019 22:00:34 2,7 C 7,4 C 60,0%
26.03.2019 21:53:31 2,7 C 7,4 C 60,0%
26.03.2019 21:46:33 2,8 C 7,4 C 60,0%
26.03.2019 21:39:31 3,0 C 7,4 C 59,0%
26.03.2019 21:32:31 3,1 C 7,5 C 59,0%
26.03.2019 21:25:31 3,2 C 7,5 C 58,0%
26.03.2019 21:18:32 3,3 C 7,5 C 58,0%
26.03.2019 21:11:29 3,3 C 7,6 C 58,0%
26.03.2019 21:04:33 3,5 C 7,6 C 58,0%
26.03.2019 20:57:30 3,7 C 7,6 C 57,0%
26.03.2019 20:50:16 3,8 C 7,6 C 55,0%
26.03.2019 20:43:16 3,7 C 7,7 C 56,0%
26.03.2019 20:36:17 3,6 C 7,7 C 58,0%
26.03.2019 20:29:17 3,6 C 7,7 C 58,0%